This is the latest recevied weather packets stored in our database for station/object DC1RS. If no packets are shown the sender has not sent any weather packets the latest 10 day(s).
| Time | Temp. | Humidity | Pressure | Rain* | Wind** | Luminosity | Snow |
|---|---|---|---|---|---|---|---|
| 1777865590 | 14.44° C | 65% | 1013.2 hPa | 0 mm | - | 0 W/m² | - |
| 1777863561 | 15.56° C | 62% | 1013.4 hPa | 0 mm | - | 0 W/m² | - |
| 1777861971 | 16.11° C | 60% | 1012.9 hPa | 0 mm | - | 0 W/m² | - |
| 1777860381 | 16.11° C | 61% | 1012.9 hPa | 0 mm | - | 0 W/m² | - |
| 1777858821 | 14.44° C | 65% | 1012.4 hPa | 0 mm | - | 0 W/m² | - |
| 1777856930 | 13.89° C | 66% | 1012 hPa | 0 mm | - | 0 W/m² | - |
| 1777855341 | 14.44° C | 64% | 1011.5 hPa | 0 mm | - | 0 W/m² | - |
| 1777853591 | 13.89° C | 66% | 1011.2 hPa | 0 mm | - | 0 W/m² | - |
| 1777852032 | 13.33° C | 68% | 1011.2 hPa | 0 mm | - | 0 W/m² | - |
| 1777850271 | 13.33° C | 68% | 1011.3 hPa | 0 mm | - | 0 W/m² | - |
| 1777848491 | 13.33° C | 67% | 1010.7 hPa | 0 mm | - | 0 W/m² | - |
| 1777846902 | 14.44° C | 63% | 1010.8 hPa | 0 mm | - | 0 W/m² | - |
| 1777844931 | 14.44° C | 61% | 1010.4 hPa | 0 mm | - | 0 W/m² | - |
| 1777843341 | 15° C | 57% | 1010.1 hPa | 0 mm | - | 0 W/m² | - |
| 1777842741 | 15.56° C | 54% | 1009.7 hPa | 0 mm | - | 0 W/m² | - |
| 1777842251 | 16.11° C | 53% | 1009.9 hPa | 0 mm | - | 0 W/m² | - |
| 1777840662 | 17.22° C | 50% | 1009.7 hPa | 0 mm | - | 0 W/m² | - |
| 1777838931 | 17.78° C | 49% | 1009.9 hPa | 0 mm | - | 0 W/m² | - |
| 1777838271 | 17.22° C | 50% | 1009.8 hPa | 0 mm | - | 0 W/m² | - |
| 1777836681 | 18.33° C | 49% | 1009.7 hPa | 0 mm | - | 0 W/m² | - |
| 1777835232 | 19.44° C | 49% | 1009.7 hPa | 0 mm | - | 0 W/m² | - |
| 1777833861 | 20.56° C | 46% | 1009.6 hPa | 0 mm | - | 0 W/m² | - |
| 1777832271 | 21.11° C | 47% | 1009.5 hPa | 0 mm | - | 4 W/m² | - |
| 1777830051 | 23.33° C | 40% | 1009.5 hPa | 0 mm | - | 26 W/m² | - |
| 1777828431 | 25° C | 38% | 1009.3 hPa | 0 mm | - | 45 W/m² | - |
* Rain latest hour (hover to see other rain measurements)
** Current wind speed in m/s (hover to see current wind gust speed)